This is the latest recevied weather packets stored in our database for station/object DG8SF-13. If no packets are shown the sender has not sent any weather packets the latest 10 day(s).
| Time | Temp. | Humidity | Pressure | Rain* | Wind** | Luminosity | Snow |
|---|---|---|---|---|---|---|---|
| 1778174549 | 12.22° C | 74% | 1014.6 hPa | 0 mm | - | - | - |
| 1778174236 | 12.22° C | 74% | 1014.6 hPa | 0 mm | - | - | - |
| 1778173924 | 12.22° C | 72% | 1014.4 hPa | 0 mm | - | - | - |
| 1778173617 | 12.78° C | 72% | 1014.3 hPa | 0 mm | - | - | - |
| 1778173299 | 12.78° C | 74% | 1014.4 hPa | 0 mm | - | - | - |
| 1778172989 | 12.78° C | 74% | 1014.3 hPa | 0 mm | - | - | - |
| 1778172675 | 12.22° C | 75% | 1014.3 hPa | 0 mm | - | - | - |
| 1778172365 | 12.78° C | 74% | 1014.4 hPa | 0 mm | - | - | - |
| 1778172054 | 12.78° C | 75% | 1014.4 hPa | 0 mm | - | - | - |
| 1778171739 | 12.78° C | 76% | 1014.4 hPa | 0 mm | - | - | - |
| 1778171430 | 12.78° C | 74% | 1014.4 hPa | 0 mm | - | - | - |
| 1778171116 | 12.78° C | 73% | 1014.4 hPa | 0 mm | - | - | - |
| 1778170805 | 12.78° C | 73% | 1014.5 hPa | 0 mm | - | - | - |
| 1778170493 | 12.78° C | 73% | 1014.4 hPa | 0 mm | - | - | - |
| 1778170183 | 12.78° C | 73% | 1014.3 hPa | 0 mm | - | - | - |
| 1778169868 | 12.78° C | 73% | 1014.4 hPa | 0 mm | - | - | - |
| 1778169558 | 12.78° C | 72% | 1014.3 hPa | 0 mm | - | - | - |
| 1778169245 | 13.33° C | 73% | 1014.2 hPa | 0 mm | - | - | - |
| 1778168933 | 13.33° C | 72% | 1014.2 hPa | 0 mm | - | - | - |
| 1778168619 | 13.89° C | 72% | 1014.3 hPa | 0 mm | - | - | - |
| 1778168313 | 13.89° C | 69% | 1014.2 hPa | 0 mm | - | - | - |
| 1778167997 | 13.89° C | 68% | 1014.3 hPa | 0 mm | - | - | - |
| 1778167685 | 14.44° C | 70% | 1014.2 hPa | 0 mm | - | - | - |
| 1778167373 | 14.44° C | 71% | 1014.1 hPa | 0 mm | - | - | - |
| 1778167059 | 13.33° C | 75% | 1014.1 hPa | 0 mm | - | - | - |
* Rain latest hour (hover to see other rain measurements)
** Current wind speed in m/s (hover to see current wind gust speed)